DW8343 Weather Reports


time (UTC)temp
C
wind
direction
speed
KPH
gust
KPH
rain 1hr
cm
rain 24hr
cm
rain mn
cm
humidity
%
barometer
mb
20260505080123 22 259 4.8 11.3 0.00 0.00 0.00 75 1000.8
20260505075620 22 241 3.2 9.7 0.00 0.00 0.00 75 1000.7
20260505075116 22 265 6.4 16.1 0.00 0.00 0.00 75 1001.0
20260505074613 22 257 6.4 11.3 0.00 0.00 0.00 75 1001.0
20260505074110 22 146 1.6 6.4 0.00 0.00 0.00 75 1000.9
20260505073608 22 266 6.4 11.3 0.00 0.00 0.00 75 1001.1
20260505073106 22 245 6.4 11.3 0.00 0.00 0.00 75 1001.0
20260505072601 22 338 6.4 20.9 0.00 0.00 0.00 74 1001.2
20260505072058 22 247 1.6 14.5 0.00 0.00 0.00 74 1001.1
20260505071559 22 170 11.3 16.1 0.00 0.00 0.00 74 1001.4
20260505071057 22 180 0.0 11.3 0.00 0.00 0.00 75 1001.4
20260505070554 22 171 4.8 11.3 0.00 0.00 0.00 74 1001.4
20260505070050 22 259 3.2 17.7 0.00 0.00 0.00 74 1001.6
20260505065546 22 334 8.0 14.5 0.00 0.00 0.00 74 1001.5
20260505065043 22 183 3.2 12.9 0.00 0.00 0.00 74 1001.6
20260505064539 22 135 3.2 11.3 0.00 0.00 0.00 74 1001.6
20260505064038 22 112 4.8 12.9 0.00 0.00 0.00 74 1001.8
20260505063535 22 102 3.2 12.9 0.00 0.00 0.00 74 1001.8
20260505063031 22 317 3.2 16.1 0.00 0.00 0.00 74 1001.8
20260505062528 22 124 1.6 6.4 0.00 0.00 0.00 74 1001.8
20260505062025 22 108 6.4 9.7 0.00 0.00 0.00 74 1001.9
20260505061522 22 7 6.4 9.7 0.00 0.00 0.00 74 1001.8
20260505061020 22 288 6.4 12.9 0.00 0.00 0.00 74 1001.7
20260505060517 22 134 8.0 14.5 0.00 0.00 0.00 73 1001.9
20260505060014 22 217 6.4 6.4 0.00 0.00 0.00 74 1002.0
20260505055509 22 168 9.7 12.9 0.00 0.00 0.00 73 1002.3
20260505055006 22 305 6.4 14.5 0.00 0.00 0.00 73 1002.3
20260505054504 22 249 1.6 9.7 0.00 0.00 0.00 73 1002.2
20260505054001 22 236 3.2 9.7 0.00 0.00 0.00 73 1002.4
20260505053458 22 148 6.4 12.9 0.00 0.00 0.00 73 1002.3
20260505052955 23 274 1.6 6.4 0.00 0.00 0.00 73 1002.3
20260505052452 23 222 3.2 12.9 0.00 0.00 0.00 72 1002.3
20260505051949 23 237 4.8 12.9 0.00 0.00 0.00 72 1002.2
20260505051446 23 92 1.6 14.5 0.00 0.00 0.00 72 1002.3
20260505050944 23 119 6.4 12.9 0.00 0.00 0.00 72 1002.6
20260505050442 23 226 6.4 22.5 0.00 0.00 0.00 72 1002.6
20260505041410 23 318 6.4 9.7 0.00 0.00 0.00 71 1003.0
20260505040907 23 175 4.8 11.3 0.00 0.00 0.00 71 1003.1
20260505040405 23 68 4.8 17.7 0.00 0.00 0.00 70 1003.2
20260505035901 23 242 6.4 14.5 0.00 0.00 0.00 70 1003.1
20260505035357 23 108 6.4 20.9 0.00 0.00 0.00 70 1003.1
20260505034854 23 246 3.2 6.4 0.00 0.00 0.00 70 1003.1
20260505034351 23 347 3.2 12.9 0.00 0.00 0.00 69 1002.9
20260505033848 23 242 1.6 12.9 0.00 0.00 0.00 69 1003.0
20260505033345 23 258 6.4 16.1 0.00 0.00 0.00 69 1002.7
20260505032843 23 270 6.4 14.5 0.00 0.00 0.00 69 1002.8
20260505032339 24 242 3.2 16.1 0.00 0.00 0.00 69 1002.7
20260505031836 24 190 4.8 9.7 0.00 0.00 0.00 68 1002.7
20260505031333 24 308 3.2 11.3 0.00 0.00 0.00 68 1002.6
20260505030830 24 264 6.4 17.7 0.00 0.00 0.00 68 1002.8
20260505030326 24 180 3.2 12.9 0.00 0.00 0.00 68 1002.7
20260505025822 24 122 4.8 17.7 0.00 0.00 0.00 67 1002.8
20260505025320 24 91 6.4 12.9 0.00 0.00 0.00 67 1002.6
20260505024818 24 287 11.3 14.5 0.00 0.00 0.00 67 1002.6
20260505024315 24 280 4.8 9.7 0.00 0.00 0.00 66 1002.2
20260505023812 24 239 6.4 20.9 0.00 0.00 0.00 66 1002.5
20260505023309 24 265 6.4 22.5 0.00 0.00 0.00 66 1002.5
20260505022806 24 197 6.4 14.5 0.00 0.00 0.00 66 1002.4
20260505022304 25 66 8.0 14.5 0.00 0.00 0.00 66 1002.4
20260505021800 25 288 11.3 20.9 0.00 0.00 0.00 66 1002.3
20260505021257 25 77 4.8 9.7 0.00 0.00 0.00 66 1002.1
20260505020753 25 259 4.8 14.5 0.00 0.00 0.00 65 1002.3
20260505020248 25 49 3.2 9.7 0.00 0.00 0.00 65 1002.2
20260505015746 25 207 3.2 11.3 0.00 0.00 0.00 64 1002.3
20260505015242 25 298 8.0 12.9 0.00 0.00 0.00 64 1002.5
20260505014739 25 47 4.8 22.5 0.00 0.00 0.00 63 1002.3
20260505014237 25 227 8.0 11.3 0.00 0.00 0.00 63 1002.3
20260505013733 25 260 12.9 27.4 0.00 0.00 0.00 62 1002.6
20260505013230 25 106 1.6 12.9 0.00 0.00 0.00 62 1002.4
20260505012729 25 214 4.8 11.3 0.00 0.00 0.00 62 1002.2
20260505012225 25 224 8.0 16.1 0.00 0.00 0.00 62 1002.3
20260505011721 25 246 9.7 12.9 0.00 0.00 0.00 62 1002.3
20260505011219 25 101 3.2 16.1 0.00 0.00 0.00 62 1002.4
20260505010714 25 134 3.2 9.7 0.00 0.00 0.00 62 1002.5
20260505010211 26 219 6.4 12.9 0.00 0.00 0.00 61 1002.6
20260505005707 26 274 1.6 14.5 0.00 0.00 0.00 61 1002.6
20260505005204 26 250 3.2 11.3 0.00 0.00 0.00 61 1002.8
20260505004701 26 249 6.4 14.5 0.00 0.00 0.00 60 1002.6
20260505004158 26 54 4.8 9.7 0.00 0.00 0.00 60 1002.5
20260505003655 26 235 4.8 20.9 0.00 0.00 0.00 59 1002.8
20260505003153 26 38 3.2 17.7 0.00 0.00 0.00 59 1002.6
20260505002649 26 41 3.2 12.9 0.00 0.00 0.00 59 1002.8
20260505002147 26 123 3.2 9.7 0.00 0.00 0.00 58 1002.8
20260505001643 26 139 6.4 16.1 0.00 0.00 0.00 58 1002.9
20260505001141 26 331 1.6 9.7 0.00 0.00 0.00 58 1003.0
20260505000638 26 137 4.8 17.7 0.00 0.00 0.00 57 1003.0
20260505000136 26 358 6.4 14.5 0.00 0.00 0.00 57 1002.9
20260504235632 26 350 3.2 11.3 0.00 0.00 0.00 57 1002.9
20260504235129 27 290 9.7 20.9 0.00 0.00 0.00 57 1003.0
20260504234626 27 128 6.4 14.5 0.00 0.00 0.00 57 1003.3
20260504234123 27 326 8.0 14.5 0.00 0.00 0.00 57 1003.2
20260504233619 27 200 6.4 16.1 0.00 0.00 0.00 56 1003.2
20260504233115 27 196 4.8 11.3 0.00 0.00 0.00 56 1003.3
20260504232613 27 55 3.2 25.7 0.00 0.00 0.00 57 1003.3
20260504232110 27 249 6.4 9.7 0.00 0.00 0.00 56 1003.4
20260504231606 27 241 6.4 17.7 0.00 0.00 0.00 56 1003.8
20260504231102 27 108 3.2 12.9 0.00 0.00 0.00 56 1003.9
20260504230558 27 294 3.2 14.5 0.00 0.00 0.00 55 1003.5
20260504230053 27 262 4.8 16.1 0.00 0.00 0.00 55 1003.8
20260504225550 27 156 6.4 11.3 0.00 0.00 0.00 55 1003.8
20260504225046 27 245 6.4 9.7 0.00 0.00 0.00 55 1003.8
20260504224543 27 213 3.2 6.4 0.00 0.00 0.00 55 1003.9
20260504224040 27 147 6.4 9.7 0.00 0.00 0.00 55 1003.8
20260504223537 27 311 4.8 17.7 0.00 0.00 0.00 55 1004.0
20260504223033 27 78 1.6 3.2 0.00 0.00 0.00 54 1004.0
20260504222530 27 275 3.2 6.4 0.00 0.00 0.00 54 1003.9
20260504222027 27 302 6.4 14.5 0.00 0.00 0.00 54 1003.9
20260504221524 27 104 6.4 14.5 0.00 0.00 0.00 54 1004.1
20260504221021 27 193 3.2 9.7 0.00 0.00 0.00 53 1004.1
20260504220518 27 129 4.8 9.7 0.00 0.00 0.00 54 1004.1
20260504220015 27 263 6.4 11.3 0.00 0.00 0.00 54 1004.3
20260504215511 27 203 4.8 9.7 0.00 0.00 0.00 53 1004.1
20260504215009 27 241 4.8 16.1 0.00 0.00 0.00 53 1004.3
20260504214504 27 197 6.4 14.5 0.00 0.00 0.00 53 1004.6
20260504214001 27 215 17.7 20.9 0.00 0.00 0.00 52 1004.4
20260504213456 27 229 3.2 16.1 0.00 0.00 0.00 53 1004.6
20260504212955 27 283 3.2 11.3 0.00 0.00 0.00 51 1004.7
20260504212450 27 343 4.8 16.1 0.00 0.00 0.00 52 1004.6
20260504211948 27 76 3.2 16.1 0.00 0.00 0.00 52 1004.8
20260504211444 27 273 6.4 12.9 0.00 0.00 0.00 52 1004.9
20260504210942 27 189 9.7 25.7 0.00 0.00 0.00 51 1004.9
20260504210438 27 334 6.4 14.5 0.00 0.00 0.00 50 1004.9
20260504205936 27 200 3.2 12.9 0.00 0.00 0.00 49 1005.0
20260504205433 27 177 4.8 11.3 0.00 0.00 0.00 49 1005.1
20260504204931 28 211 3.2 12.9 0.00 0.00 0.00 49 1005.1
20260504204429 27 277 4.8 11.3 0.00 0.00 0.00 50 1005.1
20260504203928 27 278 9.7 16.1 0.00 0.00 0.00 49 1005.3
20260504203426 28 290 6.4 14.5 0.00 0.00 0.00 48 1005.4
20260504202921 28 19 4.8 12.9 0.00 0.00 0.00 49 1005.3
20260504202418 28 134 3.2 12.9 0.00 0.00 0.00 49 1005.5
20260504201915 27 167 8.0 11.3 0.00 0.00 0.00 48 1005.6
20260504201412 28 232 6.4 20.9 0.00 0.00 0.00 48 1005.6
20260504200910 28 142 6.4 14.5 0.00 0.00 0.00 46 1005.4
20260504200406 27 35 3.2 12.9 0.00 0.00 0.00 47 1005.7
20260504195903 27 136 6.4 11.3 0.00 0.00 0.00 48 1005.9
20260504195358 28 32 8.0 11.3 0.00 0.00 0.00 47 1005.9
20260504194855 27 274 14.5 20.9 0.00 0.00 0.00 47 1005.9
20260504194351 27 296 9.7 14.5 0.00 0.00 0.00 48 1006.2
20260504193847 27 206 3.2 20.9 0.00 0.00 0.00 49 1006.2
20260504193344 27 281 6.4 16.1 0.00 0.00 0.00 48 1006.3
20260504192843 27 2 4.8 9.7 0.00 0.00 0.00 49 1006.4
20260504192340 28 175 6.4 16.1 0.00 0.00 0.00 48 1006.5
20260504191839 27 282 4.8 12.9 0.00 0.00 0.00 48 1006.4
20260504191337 27 254 6.4 22.5 0.00 0.00 0.00 47 1006.4
20260504190832 26 285 3.2 16.1 0.00 0.00 0.00 50 1006.3
20260504190328 27 177 8.0 16.1 0.00 0.00 0.00 48 1006.6
20260504185825 27 195 3.2 12.9 0.00 0.00 0.00 49 1006.6
20260504185322 26 175 4.8 20.9 0.00 0.00 0.00 48 1006.9
20260504184818 26 303 6.4 17.7 0.00 0.00 0.00 49 1006.8
20260504184314 26 40 3.2 11.3 0.00 0.00 0.00 49 1007.1
20260504183809 26 247 6.4 12.9 0.00 0.00 0.00 49 1007.1
20260504183307 26 256 11.3 12.9 0.00 0.00 0.00 49 1007.2
20260504182805 26 175 3.2 12.9 0.00 0.00 0.00 49 1007.3
20260504182304 26 259 6.4 14.5 0.00 0.00 0.00 49 1007.3
20260504181759 26 50 3.2 12.9 0.00 0.00 0.00 49 1007.4
20260504181256 26 115 6.4 16.1 0.00 0.00 0.00 49 1007.2
20260504180755 26 228 9.7 16.1 0.00 0.00 0.00 48 1007.4
20260504180254 26 347 9.7 16.1 0.00 0.00 0.00 48 1007.4
20260504175751 25 332 6.4 12.9 0.00 0.00 0.00 49 1007.6
20260504175248 26 243 3.2 20.9 0.00 0.00 0.00 48 1007.7
20260504174745 26 38 4.8 17.7 0.00 0.00 0.00 48 1007.8
20260504174243 26 246 6.4 16.1 0.00 0.00 0.00 49 1008.0
20260504173739 26 97 9.7 17.7 0.00 0.00 0.00 47 1007.8
20260504173237 25 202 9.7 22.5 0.00 0.00 0.00 48 1008.1
20260504172733 26 250 6.4 14.5 0.00 0.00 0.00 47 1008.1
20260504172230 25 303 9.7 20.9 0.00 0.00 0.00 49 1007.9
20260504171726 25 336 6.4 14.5 0.00 0.00 0.00 48 1008.0
20260504171223 25 129 3.2 16.1 0.00 0.00 0.00 49 1008.2
20260504170720 25 172 6.4 9.7 0.00 0.00 0.00 48 1008.0
20260504170217 25 260 8.0 12.9 0.00 0.00 0.00 49 1008.1
20260504160136 23 108 9.7 20.9 0.00 0.00 0.00 49 1008.3
20260504151103 22 228 6.4 11.3 0.00 0.00 0.00 51 1008.7
20260504150601 22 275 4.8 14.5 0.00 0.00 0.00 52 1008.8
20260504141026 20 304 6.4 9.7 0.00 0.00 0.00 55 1009.2
20260504140523 20 299 8.0 12.9 0.00 0.00 0.00 55 1009.2
20260504130447 18 216 4.8 12.9 0.00 0.00 0.00 59 1009.4
20260504110334 17 263 1.6 9.7 0.00 0.00 0.00 58 1009.6
20260504100246 18 294 4.8 11.3 0.00 0.00 0.00 52 1010.1
20260504081639 19 230 4.8 11.3 0.00 0.00 0.00 47 1011.0
20260504081135 20 221 4.8 16.1 0.00 0.00 0.00 47 1011.0
20260504080632 20 221 4.8 16.1 0.00 0.00 0.00 47 1011.0